KC3SRB Weather Reports


time (UTC)temp
C
wind
direction
speed
KPH
gust
KPH
rain 1hr
cm
rain 24hr
cm
rain mn
cm
humidity
%
barometer
mb
20260504081555 7 346 0.0 3.2 0.00 0.00 0.00 59 1014.0
20260504044603 8 0 0.0 1.6 0.00 0.00 0.00 60 1014.1
20260504043055 8 0 0.0 0.0 0.00 0.00 0.00 57 1014.1
20260504041554 8 0 0.0 3.2 0.00 0.00 0.00 58 1014.0
20260504040104 9 0 0.0 1.6 0.00 0.00 0.00 53 1014.1
20260504034559 9 0 0.0 3.2 0.00 0.00 0.00 52 1013.9
20260504033126 9 0 0.0 4.8 0.00 0.00 0.00 52 1013.8
20260504031557 10 0 0.0 1.6 0.00 0.00 0.00 50 1013.8
20260504030052 10 0 0.0 0.0 0.00 0.00 0.00 51 1013.6
20260504024556 10 0 0.0 3.2 0.00 0.00 0.00 46 1013.6
20260504023104 10 0 0.0 0.0 0.00 0.00 0.00 48 1013.6
20260504021554 11 0 0.0 3.2 0.00 0.00 0.00 46 1013.6
20260504020057 11 0 0.0 8.0 0.00 0.00 0.00 43 1013.7
20260504014551 11 323 3.2 6.4 0.00 0.00 0.00 42 1013.6
20260504013106 11 350 1.6 4.8 0.00 0.00 0.00 43 1013.6
20260504011556 11 352 1.6 4.8 0.00 0.00 0.00 43 1013.6
20260504010110 11 9 1.6 3.2 0.00 0.00 0.00 43 1013.5
20260504004624 11 352 1.6 4.8 0.00 0.00 0.00 45 1013.4
20260504003054 11 5 1.6 3.2 0.00 0.00 0.00 43 1013.3
20260504001607 11 352 1.6 3.2 0.00 0.00 0.00 44 1013.2
20260504000050 12 346 1.6 4.8 0.00 0.00 0.00 42 1013.0
20260503234554 13 328 0.0 6.4 0.00 0.00 0.00 38 1012.8
20260503233053 13 309 0.0 12.9 0.00 0.00 0.00 37 1012.7
20260503231556 13 308 1.6 8.0 0.00 0.00 0.00 35 1012.6
20260503230054 14 311 1.6 12.9 0.00 0.00 0.00 35 1012.6
20260503224553 14 252 6.4 16.1 0.00 0.00 0.00 34 1012.5
20260503223057 14 332 4.8 12.9 0.00 0.00 0.00 34 1012.5
20260503221552 14 302 4.8 22.5 0.00 0.00 0.00 34 1012.6
20260503220050 15 295 11.3 29.0 0.00 0.00 0.00 33 1012.7
20260503214552 15 273 3.2 16.1 0.00 0.00 0.00 33 1012.6
20260503213104 15 249 6.4 19.3 0.00 0.00 0.00 35 1012.6
20260503211549 15 284 1.6 17.7 0.00 0.00 0.00 35 1012.3
20260503210059 15 0 11.3 22.5 0.00 0.00 0.00 34 1012.4
20260503204554 15 246 6.4 17.7 0.00 0.00 0.00 33 1012.5
20260503203105 15 154 3.2 20.9 0.00 0.00 0.00 34 1012.4
20260503201604 15 329 6.4 17.7 0.00 0.00 0.00 35 1012.7
20260503200058 14 310 12.9 22.5 0.00 0.00 0.00 33 1012.7
20260503194603 15 280 9.7 22.5 0.00 0.00 0.00 33 1012.8
20260503193101 15 313 8.0 20.9 0.00 0.00 0.00 34 1012.9
20260503191622 15 274 11.3 22.5 0.00 0.00 0.00 32 1013.2
20260503190103 14 94 3.2 22.5 0.00 0.00 0.00 35 1013.3
20260503184601 14 292 4.8 14.5 0.00 0.00 0.00 35 1013.3
20260503183112 14 327 8.0 25.7 0.00 0.00 0.00 33 1013.6
20260503181555 13 273 8.0 25.7 0.00 0.00 0.00 36 1013.6
20260503180053 13 240 6.4 17.7 0.00 0.00 0.00 34 1013.8
20260503174554 13 256 3.2 17.7 0.00 0.00 0.00 34 1013.8
20260503173113 13 277 6.4 20.9 0.00 0.00 0.00 38 1013.9
20260503171553 12 360 6.4 27.4 0.00 0.00 0.00 37 1014.1
20260503120109 5 161 1.6 14.5 0.00 0.00 0.00 61 1015.3